Wind_Speed
25 25 24 24 25 24 23 22 21 21 21 21 22 21 20 19 19 18 17 17 17 17 16 16 16 15 16 16 15 15 15 14 14 13 13 14 13 12 11 10 10 10 9 9 8 9 9 8 8 7 8 7 6 6 6 7 7 7 7 7 7 8 9
24 24 25 25 25 24 24 23 23 22 22 22 22 21 21 20 19 18 17 17 18 17 17 16 16 16 16 16 16 16 15 15 14 12 11 12 13 12 11 10 10 10 10 10 9 9 10 10 9 9 9 9 8 8 8 8 8 8 8 9 9 9 9
25 28 29 28 25 24 24 24 23 22 22 22 22 21 21 20 20 19 18 18 18 18 17 17 16 17 17 17 16 16 16 15 14 12 11 11 11 11 9 9 11 11 11 11 10 10 11 11 10 10 10 10 9 9 9 9 9 10 10 10 10 11 11
26 28 28 26 24 24 24 24 24 22 22 22 22 21 21 21 20 19 19 18 18 18 18 17 17 18 18 17 17 16 16 16 15 14 14 12 11 10 8 9 11 11 11 12 11 10 11 11 11 11 11 10 10 10 10 11 11 11 11 11 12 12 12
26 28 27 24 24 24 24 25 24 22 21 22 22 22 22 21 20 19 19 19 19 19 19 18 18 18 18 18 18 17 16 16 15 15 15 15 13 12 11 11 12 11 12 13 12 11 12 12 12 12 12 12 11 11 11 12 11 11 11 12 12 13 13
30 29 27 25 24 24 25 25 23 22 21 22 22 23 22 21 20 19 19 19 20 20 20 19 19 19 19 18 18 18 17 16 15 15 15 15 15 14 13 13 14 14 14 14 14 13 13 13 13 14 14 13 12 11 12 12 12 12 12 12 13 13 13
31 29 27 26 24 24 24 24 23 21 21 23 23 23 23 21 21 20 20 20 20 20 21 20 20 19 19 19 19 19 18 17 16 15 15 15 15 14 14 14 15 16 16 15 15 14 14 14 15 16 15 14 13 13 13 14 13 13 13 13 14 14 13
29 28 27 26 24 24 25 24 23 22 22 23 24 24 23 22 21 21 21 21 20 21 21 20 20 20 20 20 20 20 19 19 18 17 16 16 16 15 15 16 16 17 17 16 16 15 15 15 17 16 15 14 15 14 15 15 15 14 14 14 14 14 14
28 28 28 26 23 23 24 24 24 24 23 23 24 24 23 22 22 22 21 21 20 20 20 20 19 19 19 20 20 21 20 20 20 19 18 18 18 17 17 17 18 18 17 17 17 16 15 16 17 16 15 15 16 15 16 15 15 15 14 15 14 14 14
28 28 28 25 21 21 24 25 26 25 23 23 24 24 24 23 22 22 21 21 20 19 19 19 19 19 19 19 19 20 20 20 20 20 20 20 19 19 18 18 18 19 17 16 16 16 15 16 17 16 16 16 16 16 16 15 15 15 15 15 14 14 13
28 28 27 24 20 22 26 26 25 23 22 23 23 23 24 23 22 22 21 20 19 19 19 19 20 20 19 19 19 19 19 19 20 20 20 20 20 20 19 17 17 18 17 15 15 15 15 16 17 17 17 17 17 17 16 15 15 15 14 14 14 13 13
27 27 26 24 23 25 26 25 22 21 21 23 23 22 21 21 21 20 20 19 18 18 18 19 20 21 20 20 19 18 17 18 18 19 19 19 19 19 18 17 17 16 16 15 14 14 15 16 17 18 18 18 17 17 16 15 15 14 14 14 14 14 13
24 24 25 25 24 24 23 22 20 20 21 22 21 19 18 19 19 18 18 19 19 18 18 18 19 20 20 20 19 18 17 17 17 17 18 18 18 18 17 17 17 16 16 15 14 14 15 16 18 18 18 17 16 16 15 15 14 14 14 14 14 14 14
21 20 21 23 23 22 21 20 20 20 21 21 19 17 18 19 19 18 18 19 19 19 18 18 18 19 19 19 19 19 18 17 17 16 17 17 17 16 16 16 16 16 15 15 15 15 16 17 18 18 17 17 16 16 16 16 15 14 14 14 15 15 14
20 19 19 21 21 21 20 20 20 20 21 20 18 18 19 20 20 19 19 19 19 19 18 18 19 19 20 20 20 20 19 18 17 17 17 16 16 15 15 15 15 15 15 15 16 16 16 16 17 18 18 17 17 17 17 17 16 15 15 16 16 16 16
20 19 19 19 19 18 18 17 18 20 21 21 20 19 20 21 20 19 19 19 19 18 18 17 19 20 21 22 21 21 20 18 18 17 17 16 15 15 15 15 15 15 15 15 16 16 17 17 18 19 19 19 19 19 19 19 18 18 18 18 18 18 17
20 19 19 19 17 16 16 17 18 20 21 22 22 22 21 21 21 20 20 20 20 19 18 18 19 20 21 23 23 23 22 20 19 18 18 17 17 17 16 16 16 16 16 16 17 17 18 19 19 20 20 21 21 21 21 21 21 21 21 20 20 20 19
20 19 18 17 16 16 16 17 19 20 22 23 23 23 22 22 23 23 22 22 23 23 22 21 21 20 21 23 24 24 23 22 20 19 19 19 19 19 18 19 19 18 18 18 19 20 20 20 20 21 21 21 22 22 22 22 23 23 22 21 21 21 22
20 18 17 16 16 16 16 17 19 20 22 23 23 23 22 23 25 25 23 23 24 24 23 23 22 21 21 22 23 24 24 23 21 20 20 20 20 20 20 21 21 21 21 21 21 21 21 21 21 22 22 22 22 22 22 23 24 23 23 22 22 23 24
19 17 16 17 17 17 17 18 20 22 23 23 23 23 24 25 27 26 24 22 22 22 21 21 22 21 21 22 23 24 24 23 22 21 20 20 20 21 21 22 22 23 23 23 23 23 23 23 23 23 23 22 22 23 23 23 24 24 24 24 24 25 25
18 17 17 17 17 17 17 19 21 22 23 24 23 24 25 26 28 28 26 24 22 20 19 19 20 21 21 21 22 23 24 24 24 23 23 22 22 22 23 23 23 24 24 24 24 24 24 24 24 24 24 23 23 23 24 24 25 25 25 25 26 27 27
18 18 19 19 18 18 18 20 21 22 23 24 23 23 23 25 27 28 27 26 24 21 19 19 20 21 21 22 22 23 25 26 26 26 26 25 25 25 24 24 24 24 25 25 25 25 24 24 25 25 24 24 24 25 25 25 26 26 26 26 27 28 28
20 21 21 21 20 20 21 21 22 23 24 24 23 22 22 23 25 28 28 27 25 23 21 20 20 21 21 22 22 23 24 25 26 26 26 26 25 25 25 25 24 25 25 25 25 25 25 25 25 26 26 26 26 26 26 27 27 27 27 28 28 28 29
22 22 22 21 21 21 23 23 24 26 27 26 23 21 20 20 21 25 28 28 27 26 24 21 20 20 21 21 22 22 23 24 24 25 25 25 25 25 26 26 26 26 26 26 26 26 26 27 27 27 27 27 27 27 28 28 29 29 29 29 29 29 30
24 23 22 22 21 22 22 23 25 28 28 25 21 18 17 17 18 20 24 28 30 28 25 23 21 21 22 22 23 23 23 24 24 24 24 25 26 27 27 27 28 28 28 28 28 28 28 28 28 28 28 29 29 29 30 30 30 30 30 30 31 31 32
25 24 23 22 22 22 22 22 24 25 21 18 16 16 16 15 15 16 18 23 27 28 25 23 22 23 24 24 24 25 25 26 25 25 25 26 27 28 29 29 29 29 29 29 29 30 30 29 29 30 30 31 31 31 32 32 32 32 32 33 34 34 35
25 25 24 22 21 20 20 20 20 19 16 14 15 15 15 14 15 15 15 16 19 22 22 23 24 26 26 25 25 25 26 26 26 26 27 28 29 29 30 31 31 31 32 32 32 32 32 32 32 32 32 33 33 34 34 34 34 35 36 37 38 38 39
25 24 23 22 21 21 20 20 19 19 18 17 17 16 16 17 17 18 17 16 17 19 21 24 25 26 26 25 24 24 25 26 26 27 28 29 30 30 31 32 33 34 34 34 35 35 36 36 35 35 35 35 36 36 37 37 37 38 40 41 42 42 43
25 24 23 23 22 22 21 21 21 21 21 21 21 20 20 20 20 19 19 19 19 19 21 23 24 24 24 23 23 24 26 27 28 28 29 29 30 31 32 34 34 35 36 37 38 38 39 38 38 38 38 38 38 39 39 40 40 42 43 44 45 46 46
26 25 24 24 24 23 23 22 22 22 22 22 22 21 21 21 20 19 19 19 20 21 22 23 23 24 24 24 25 27 28 30 30 30 30 31 32 33 34 35 36 37 38 39 40 40 41 41 41 41 40 41 41 41 42 42 43 45 46 47 47 48 48
26 26 26 26 25 25 24 24 24 24 24 23 22 22 21 21 20 20 20 20 21 22 23 24 25 26 27 27 29 30 31 32 33 33 34 35 35 36 36 37 38 39 40 40 41 42 42 43 43 43 43 43 43 43 44 45 45 47 48 49 49 50 51
26 27 27 27 27 26 25 25 26 25 25 24 24 23 23 22 22 22 23 23 23 24 24 25 26 27 28 30 31 32 33 34 35 37 38 39 39 40 39 39 40 40 41 41 42 43 44 45 45 46 46 47 46 46 47 48 48 49 50 51 52 53 53
27 28 29 29 28 28 27 27 27 26 26 25 25 25 24 24 24 25 25 26 26 27 28 28 29 30 32 33 34 35 36 37 38 40 41 42 43 43 43 43 43 42 43 43 44 45 46 47 48 49 50 51 51 51 51 52 53 54 54 55 55 55 56
30 30 31 31 30 29 29 28 28 28 27 27 27 26 26 26 27 27 28 29 30 31 32 33 34 35 36 37 38 39 40 41 41 42 43 44 45 45 46 47 47 47 48 48 49 49 50 51 52 53 54 55 56 57 57 58 59 60 60 59 59 59 58
31 31 32 32 31 31 31 30 30 30 30 29 29 29 29 29 30 31 32 33 34 35 35 36 37 37 38 39 40 41 42 43 43 44 45 46 47 48 49 50 50 51 52 53 53 54 54 55 56 56 57 58 60 61 62 63 64 65 64 63 63 63 63
31 32 33 33 33 33 33 32 32 32 32 31 31 31 31 33 34 35 36 37 38 38 39 40 40 41 41 42 43 44 45 45 46 47 48 49 50 51 52 53 53 54 55 56 57 57 58 58 59 60 61 62 63 64 65 66 67 68 67 67 67 68 68
33 34 34 34 34 34 34 34 33 33 33 33 34 35 36 37 38 38 38 39 40 40 41 42 43 43 44 44 45 46 47 48 48 49 50 51 52 53 54 55 56 57 58 59 59 60 61 62 63 63 64 65 66 67 67 68 68 69 69 69 70 70 69
Wind_Direction
237 238 237 239 240 236 233 229 227 227 227 230 232 233 235 236 238 239 242 244 243 242 240 239 239 241 243 244 246 247 248 247 246 245 244 245 245 244 243 245 248 248 244 242 239 237 245 248 242 243 253 257 253 248 251 257 267 276 281 286 290 291 293
234 236 237 240 241 238 234 231 227 226 227 229 231 235 237 238 239 241 242 244 244 244 243 242 240 240 241 243 244 245 245 245 245 247 248 244 246 249 245 243 250 252 248 244 239 238 243 245 243 244 249 256 259 259 261 265 270 275 278 281 282 283 286
236 237 238 239 239 238 236 233 230 228 228 230 233 236 238 239 241 243 244 244 245 246 247 247 245 243 241 241 242 243 244 242 239 242 251 252 250 251 247 242 246 251 253 253 250 248 252 254 254 253 253 257 262 263 265 268 271 274 277 279 281 284 287
231 229 233 235 236 235 235 235 233 232 232 234 236 238 239 240 241 244 247 248 248 249 250 250 249 248 245 243 243 242 241 241 237 235 243 254 255 250 249 250 251 251 254 257 257 257 261 264 264 265 265 264 265 266 267 269 271 274 278 282 286 288 290
220 224 234 236 233 233 234 235 234 234 235 237 239 240 240 240 242 245 248 250 251 252 252 251 250 250 248 246 244 242 240 240 239 237 238 244 251 254 257 258 261 263 260 258 259 261 264 268 269 271 270 267 268 270 272 274 276 278 281 284 286 287 289
226 233 240 238 232 232 233 233 234 235 238 240 241 241 241 241 242 245 248 250 252 254 254 252 251 249 248 246 244 243 241 239 239 240 239 240 244 250 255 256 259 263 262 260 260 262 265 268 271 272 272 272 274 277 278 280 282 283 284 285 286 287 289
233 238 238 233 231 231 231 231 232 236 240 243 244 242 242 242 244 245 247 250 251 253 254 253 251 248 245 244 242 242 242 241 240 241 242 243 245 248 252 253 255 258 260 262 262 265 270 270 269 270 273 277 280 283 283 284 285 285 286 286 287 288 291
234 237 234 228 229 231 229 229 232 237 242 244 246 245 243 243 244 245 246 248 249 251 253 253 250 247 243 242 242 243 244 243 243 244 246 249 251 254 256 258 258 257 258 260 262 265 269 267 265 266 270 275 280 282 283 283 285 285 286 286 286 289 291
235 238 233 226 227 230 229 230 235 239 243 245 246 245 245 245 245 245 246 246 246 247 249 250 247 243 240 239 240 243 245 246 247 248 251 254 256 259 261 264 265 262 259 261 260 261 264 265 265 268 272 276 278 279 279 281 283 282 282 282 284 286 288
233 237 231 224 228 231 229 232 236 239 242 244 244 244 246 247 245 244 244 244 243 243 245 245 243 240 237 237 239 242 245 248 250 252 255 258 260 261 262 263 263 263 262 260 258 256 258 260 262 265 270 274 275 276 276 277 277 277 278 279 282 285 286
234 235 228 224 232 234 231 233 235 239 243 243 244 245 248 248 245 242 241 240 240 241 242 243 242 241 239 239 240 244 248 251 255 257 258 259 260 260 259 256 255 258 259 258 257 256 256 257 259 264 268 271 273 273 273 272 273 275 278 280 283 286 288
234 232 229 232 237 234 232 235 236 239 242 244 247 248 247 246 242 240 238 237 238 240 241 241 241 241 242 243 244 248 253 257 259 261 260 259 257 255 253 252 251 253 255 255 256 258 259 259 260 264 268 269 268 268 270 272 273 275 279 282 285 287 288
224 227 233 237 238 235 235 238 238 239 242 245 247 244 242 240 238 236 235 237 239 239 239 240 240 241 242 244 247 251 255 259 262 264 262 258 254 251 249 248 249 249 250 252 254 256 259 260 260 262 264 264 263 266 269 272 274 276 280 283 285 287 288
218 227 233 234 235 237 239 239 238 238 240 240 239 237 236 236 234 233 234 238 240 240 240 241 242 244 244 246 248 251 255 258 261 263 262 257 252 250 249 249 250 248 248 250 252 253 254 256 259 260 260 261 264 267 269 272 275 277 280 282 285 287 288
220 224 228 229 232 235 238 238 237 237 236 234 235 236 236 237 238 237 236 238 239 239 240 242 244 247 247 248 249 251 253 255 258 261 260 258 255 253 253 253 252 250 247 246 248 249 249 250 253 256 259 262 265 267 269 273 276 278 280 281 282 283 285
220 221 225 226 226 230 235 237 236 235 233 234 237 240 241 242 243 242 239 238 237 237 239 242 246 248 249 250 250 251 253 254 257 259 259 259 258 258 258 258 257 255 252 249 249 250 250 250 252 257 261 265 267 270 273 276 278 278 278 277 277 277 279
221 224 224 219 218 222 227 230 231 233 234 237 240 243 244 245 246 246 244 240 239 240 244 248 250 251 251 250 250 251 253 254 257 258 258 258 257 258 259 260 262 262 259 257 256 255 256 257 259 262 265 269 271 273 274 276 276 276 275 274 274 273 275
217 218 216 214 216 218 221 225 229 233 236 238 241 243 244 246 248 248 246 245 245 247 250 254 256 256 254 252 251 251 253 255 257 258 258 258 258 259 260 260 262 264 263 261 260 259 260 263 265 267 268 270 272 272 274 274 274 274 274 273 272 272 274
211 213 215 214 215 216 219 223 228 233 238 241 244 246 246 245 247 248 248 249 251 251 253 255 257 258 256 253 251 251 252 255 256 257 256 258 260 262 263 264 264 264 264 263 261 261 263 264 266 267 269 270 271 272 273 274 273 274 273 272 271 271 272
212 216 219 217 216 217 219 223 229 235 239 243 245 246 245 244 244 246 249 253 257 256 253 253 254 255 254 252 251 250 251 253 254 253 254 256 260 264 266 267 266 265 264 263 262 263 263 264 265 267 268 269 271 272 274 274 275 275 273 272 271 270 270
218 223 225 223 222 222 225 230 234 238 242 246 247 247 244 243 243 246 250 255 259 258 255 252 252 252 250 248 248 248 249 251 251 251 252 255 259 262 264 265 265 264 263 263 263 264 264 265 266 267 267 269 270 272 273 273 273 272 271 270 269 268 267
224 231 233 233 233 232 234 237 240 243 245 247 248 248 246 244 245 249 252 255 256 255 254 253 251 250 249 247 246 245 246 248 250 251 253 255 258 260 261 261 261 262 262 263 264 265 266 266 267 266 267 267 268 269 270 270 270 270 269 267 265 264 264
231 236 238 240 242 241 241 243 245 245 244 245 249 252 251 249 248 250 252 253 251 250 251 251 249 249 250 249 247 246 245 246 247 248 250 253 256 258 259 258 258 259 261 263 264 264 265 265 265 265 265 265 266 267 267 269 269 268 267 265 264 264 263
236 239 242 245 247 248 248 249 248 246 245 247 250 251 249 249 251 252 253 251 247 244 245 245 246 249 253 253 251 249 247 246 246 248 250 252 254 256 257 257 258 259 261 262 263 264 264 263 264 264 265 265 265 265 266 266 266 266 266 266 266 267 268
237 239 242 245 249 251 252 251 250 251 251 248 247 244 242 246 252 256 256 251 244 240 240 241 246 253 257 257 255 252 250 249 249 250 252 254 256 257 258 259 259 260 260 260 261 261 261 262 262 263 264 265 265 265 265 265 266 267 268 269 269 270 271
238 240 242 245 249 253 254 250 249 254 256 248 241 238 237 240 246 253 259 254 244 239 238 242 251 258 260 260 260 258 255 253 253 254 256 257 259 260 261 261 262 262 261 260 258 257 257 258 259 261 262 262 263 263 264 265 266 267 269 269 269 269 270
241 242 244 245 244 245 247 247 247 253 255 245 238 236 236 239 244 250 255 253 245 241 241 247 254 260 262 263 263 261 260 259 259 260 261 261 262 263 263 264 264 264 263 260 258 256 255 255 256 257 258 259 259 260 262 263 265 266 267 267 268 269 270
241 241 240 238 235 235 239 244 247 249 250 246 244 245 247 250 251 252 253 252 250 249 250 253 256 259 262 263 263 263 264 265 266 266 265 264 264 263 264 264 265 264 263 262 260 258 258 257 257 257 257 258 259 261 262 263 264 265 266 267 268 269 270
239 237 235 233 234 236 239 242 244 246 248 249 250 251 253 254 254 254 253 252 252 253 254 256 257 258 260 262 263 265 266 267 268 268 268 268 267 266 265 265 264 264 263 262 261 260 260 260 260 260 260 261 261 262 263 264 265 266 267 268 269 270 271
235 234 234 234 237 239 241 242 244 246 248 249 251 252 254 256 257 255 253 253 253 253 253 255 256 257 259 262 265 267 267 267 267 268 269 270 270 270 269 268 267 265 264 264 263 263 263 263 262 262 262 262 262 262 263 264 265 266 267 268 270 271 272
233 233 235 236 239 242 244 246 246 245 246 248 250 253 256 259 260 260 261 263 264 261 258 257 257 258 260 263 266 268 268 268 268 268 269 271 271 271 270 269 267 266 266 266 264 264 264 264 263 263 262 262 262 263 263 264 265 266 267 268 269 270 271
234 235 236 238 241 245 246 247 246 245 246 248 250 253 256 259 261 262 264 266 266 265 263 262 262 262 263 265 267 268 269 269 269 270 271 272 272 272 270 269 267 267 266 265 264 264 265 265 265 264 264 264 264 264 264 265 266 268 269 270 271 271 272
238 238 240 242 245 247 247 246 246 246 247 248 249 251 254 257 261 263 265 265 265 265 265 265 265 265 266 267 268 269 269 270 270 271 272 273 274 274 273 272 271 270 268 267 267 267 267 267 267 267 267 267 267 267 268 270 272 273 274 274 274 274 273
241 242 243 245 246 245 245 245 246 247 248 248 250 252 254 258 262 265 267 268 268 268 268 268 268 268 268 268 269 270 271 271 272 273 274 274 275 275 275 275 275 273 272 271 271 271 270 270 270 270 270 270 271 271 272 273 275 276 277 278 278 276 276
245 245 245 245 245 243 242 243 244 246 247 248 251 254 257 261 265 268 269 270 270 270 269 268 268 268 268 269 270 271 271 272 273 274 275 275 275 275 275 275 275 274 273 273 273 273 273 272 272 272 272 272 273 274 274 275 276 277 278 279 278 277 277
246 246 246 245 245 244 244 244 245 246 247 249 253 257 262 266 268 270 271 271 271 270 269 269 268 268 269 270 271 271 272 272 273 273 274 274 274 274 274 275 275 274 274 274 274 274 274 274 274 274 274 274 275 275 275 276 277 277 277 277 277 277 278
245 245 246 246 246 247 247 247 247 248 249 252 257 263 267 269 270 270 270 269 269 269 269 269 269 269 270 270 270 270 271 271 271 271 271 271 272 272 273 273 273 274 274 274 275 275 275 274 274 275 275 275 275 275 275 276 276 276 276 276 276 276 277
Height
5786 5786 5786 5787 5788 5789 5790 5792 5793 5794 5796 5798 5799 5800 5802 5803 5804 5804 5805 5805 5806 5806 5807 5807 5808 5808 5808 5809 5809 5810 5811 5811 5812 5812 5812 5812 5812 5812 5813 5813 5813 5812 5813 5813 5813 5813 5812 5812 5812 5811 5811 5812 5813 5813 5813 5814 5814 5814 5814 5814 5814 5814 5814
5786 5786 5785 5785 5786 5788 5789 5790 5791 5793 5794 5796 5797 5799 5800 5801 5802 5803 5804 5804 5805 5805 5806 5806 5807 5807 5807 5808 5808 5809 5810 5810 5811 5810 5810 5810 5811 5810 5811 5812 5812 5811 5812 5812 5812 5812 5811 5811 5811 5811 5811 5811 5811 5812 5812 5812 5813 5813 5813 5813 5812 5812 5812
5784 5784 5783 5783 5785 5787 5788 5789 5790 5792 5793 5795 5796 5798 5799 5800 5801 5802 5803 5803 5804 5804 5805 5805 5806 5806 5806 5807 5807 5808 5809 5809 5810 5809 5808 5808 5809 5809 5810 5811 5811 5811 5810 5811 5811 5811 5811 5810 5810 5810 5810 5810 5811 5811 5811 5811 5811 5811 5811 5811 5811 5811 5811
5781 5781 5781 5782 5784 5785 5786 5788 5789 5791 5793 5794 5795 5797 5798 5798 5800 5800 5801 5802 5802 5803 5803 5804 5804 5805 5805 5805 5806 5807 5807 5808 5809 5809 5808 5807 5808 5808 5809 5809 5810 5809 5809 5809 5810 5811 5810 5810 5809 5809 5810 5810 5810 5810 5810 5810 5810 5810 5810 5809 5809 5809 5809
5778 5778 5779 5781 5782 5783 5785 5786 5788 5790 5792 5793 5794 5796 5796 5797 5798 5798 5799 5800 5800 5801 5802 5803 5803 5803 5804 5804 5804 5805 5806 5806 5807 5807 5807 5807 5806 5807 5808 5809 5808 5808 5808 5808 5809 5810 5810 5809 5808 5809 5809 5809 5809 5809 5809 5809 5809 5809 5808 5808 5808 5808 5808
5774 5775 5777 5779 5780 5781 5783 5784 5786 5788 5790 5791 5793 5794 5795 5796 5796 5797 5797 5798 5799 5799 5800 5801 5801 5802 5802 5803 5803 5804 5804 5805 5805 5806 5806 5806 5807 5807 5808 5808 5808 5807 5807 5808 5808 5809 5810 5808 5807 5807 5807 5807 5808 5808 5808 5808 5808 5807 5807 5807 5807 5806 5806
5771 5773 5775 5777 5778 5779 5780 5782 5784 5786 5788 5789 5791 5792 5794 5794 5795 5795 5796 5796 5797 5798 5798 5799 5799 5800 5800 5801 5801 5802 5802 5803 5803 5804 5805 5805 5806 5806 5807 5807 5807 5806 5806 5807 5808 5808 5808 5807 5806 5806 5806 5806 5807 5807 5806 5806 5806 5806 5806 5806 5805 5805 5805
5769 5771 5773 5774 5776 5777 5778 5780 5782 5784 5785 5787 5788 5790 5792 5793 5793 5793 5794 5794 5795 5796 5796 5797 5798 5798 5799 5799 5799 5800 5800 5801 5801 5802 5803 5803 5804 5805 5805 5805 5805 5805 5805 5806 5807 5808 5807 5806 5804 5804 5805 5805 5805 5805 5805 5805 5805 5805 5805 5804 5804 5803 5803
5768 5769 5771 5773 5774 5775 5777 5778 5779 5781 5782 5784 5786 5788 5789 5791 5791 5791 5792 5792 5793 5794 5794 5795 5795 5796 5797 5797 5798 5798 5798 5799 5799 5800 5801 5801 5802 5803 5803 5803 5803 5802 5803 5804 5805 5806 5806 5804 5802 5802 5803 5803 5804 5804 5804 5804 5804 5804 5803 5803 5802 5802 5802
5766 5768 5769 5771 5773 5773 5774 5775 5777 5778 5780 5782 5784 5786 5787 5788 5789 5789 5790 5790 5791 5791 5792 5793 5793 5794 5795 5795 5796 5796 5797 5797 5797 5798 5799 5799 5800 5801 5801 5801 5800 5800 5801 5802 5803 5804 5805 5803 5800 5801 5802 5802 5802 5802 5802 5803 5802 5802 5802 5801 5801 5800 5800
5764 5766 5767 5769 5770 5771 5772 5773 5775 5776 5778 5780 5782 5784 5785 5786 5787 5787 5788 5788 5788 5789 5790 5790 5791 5791 5792 5793 5793 5794 5795 5795 5796 5796 5797 5797 5798 5798 5799 5799 5798 5798 5799 5800 5801 5801 5802 5802 5800 5800 5800 5800 5800 5800 5801 5801 5801 5800 5800 5799 5799 5799 5799
5762 5763 5765 5766 5767 5769 5770 5771 5772 5774 5776 5777 5779 5781 5783 5784 5785 5785 5786 5786 5786 5787 5788 5788 5789 5789 5790 5791 5791 5792 5792 5793 5794 5794 5794 5795 5795 5796 5796 5796 5796 5796 5796 5797 5798 5798 5799 5799 5799 5798 5798 5798 5799 5798 5798 5799 5799 5798 5798 5798 5797 5797 5797
5759 5761 5763 5764 5765 5767 5768 5769 5771 5772 5774 5775 5777 5779 5781 5782 5783 5784 5784 5784 5785 5785 5786 5786 5786 5787 5788 5788 5789 5790 5790 5791 5791 5792 5792 5792 5793 5793 5793 5793 5794 5794 5794 5794 5795 5795 5796 5796 5796 5796 5796 5796 5796 5796 5796 5796 5796 5796 5796 5796 5795 5795 5795
5757 5759 5761 5762 5764 5765 5766 5767 5769 5770 5772 5774 5775 5777 5778 5780 5781 5782 5783 5783 5783 5783 5784 5784 5784 5785 5785 5786 5786 5787 5788 5789 5789 5790 5790 5790 5790 5790 5790 5791 5791 5792 5792 5792 5792 5793 5794 5794 5794 5793 5794 5794 5794 5794 5794 5794 5794 5794 5794 5794 5793 5793 5793
5755 5757 5759 5760 5761 5763 5764 5765 5767 5769 5771 5772 5774 5775 5776 5777 5779 5780 5781 5781 5781 5781 5782 5782 5782 5782 5783 5783 5784 5785 5785 5786 5787 5788 5788 5788 5788 5788 5788 5788 5789 5789 5790 5790 5790 5791 5792 5792 5792 5791 5791 5792 5792 5792 5792 5792 5792 5791 5791 5791 5791 5791 5791
5753 5755 5756 5758 5759 5761 5762 5764 5766 5768 5769 5771 5772 5773 5774 5775 5776 5777 5778 5779 5779 5779 5779 5780 5780 5780 5780 5781 5781 5782 5783 5784 5784 5785 5786 5786 5786 5786 5786 5786 5787 5787 5788 5788 5789 5789 5789 5790 5789 5789 5789 5789 5790 5790 5789 5789 5789 5789 5789 5789 5789 5789 5788
5751 5753 5754 5756 5757 5759 5761 5763 5765 5767 5768 5769 5770 5771 5772 5772 5773 5774 5775 5776 5777 5777 5777 5777 5778 5778 5778 5778 5778 5779 5780 5781 5782 5782 5783 5783 5784 5784 5784 5784 5785 5785 5786 5786 5787 5787 5787 5787 5787 5787 5787 5787 5787 5787 5787 5787 5787 5787 5787 5787 5786 5786 5786
5750 5752 5753 5754 5755 5757 5759 5761 5763 5765 5766 5767 5768 5768 5769 5769 5770 5771 5772 5773 5774 5774 5775 5775 5775 5775 5775 5776 5776 5777 5777 5778 5779 5780 5780 5781 5781 5782 5782 5782 5782 5783 5783 5784 5784 5784 5784 5784 5784 5784 5784 5784 5784 5785 5785 5785 5784 5784 5784 5784 5784 5783 5783
5748 5750 5751 5752 5754 5756 5758 5760 5761 5762 5763 5764 5765 5766 5766 5767 5767 5768 5769 5770 5771 5771 5772 5772 5772 5773 5773 5773 5773 5774 5775 5775 5776 5777 5778 5778 5779 5779 5779 5779 5780 5780 5781 5781 5782 5781 5781 5782 5781 5781 5782 5782 5782 5782 5782 5782 5782 5782 5782 5781 5781 5781 5780
5747 5748 5749 5751 5752 5754 5756 5758 5758 5759 5760 5761 5762 5763 5764 5764 5765 5765 5766 5767 5767 5768 5769 5769 5769 5770 5770 5771 5771 5771 5772 5772 5773 5774 5775 5775 5776 5776 5776 5776 5777 5777 5777 5778 5778 5778 5779 5779 5779 5779 5779 5779 5779 5780 5780 5780 5779 5779 5779 5778 5778 5778 5777
5745 5746 5748 5749 5751 5753 5754 5755 5756 5756 5757 5758 5759 5760 5761 5761 5762 5762 5763 5764 5764 5765 5766 5766 5766 5767 5768 5768 5768 5769 5769 5770 5770 5771 5771 5772 5772 5773 5773 5773 5773 5773 5774 5775 5775 5775 5776 5776 5776 5776 5776 5776 5776 5777 5777 5777 5776 5776 5775 5775 5775 5775 5775
5743 5745 5746 5748 5750 5751 5752 5752 5753 5754 5754 5755 5756 5757 5758 5758 5759 5759 5760 5761 5761 5762 5763 5763 5764 5764 5765 5765 5766 5766 5766 5767 5767 5767 5768 5768 5769 5769 5769 5770 5770 5770 5770 5771 5771 5772 5772 5772 5772 5773 5773 5773 5773 5774 5774 5773 5773 5773 5772 5772 5771 5771 5771
5742 5743 5744 5745 5747 5748 5749 5750 5750 5751 5751 5752 5753 5754 5754 5755 5756 5756 5756 5757 5758 5759 5760 5761 5761 5762 5762 5763 5763 5763 5764 5764 5764 5764 5764 5765 5765 5766 5766 5766 5767 5767 5767 5767 5768 5768 5769 5769 5769 5769 5770 5770 5770 5770 5770 5770 5770 5769 5769 5769 5768 5768 5768
5740 5741 5742 5743 5745 5746 5747 5748 5748 5748 5749 5750 5750 5751 5751 5752 5752 5752 5753 5754 5755 5756 5757 5758 5758 5759 5760 5760 5760 5760 5760 5761 5761 5761 5761 5761 5762 5762 5762 5763 5763 5764 5764 5764 5765 5765 5765 5765 5766 5766 5766 5766 5766 5766 5766 5766 5766 5766 5766 5765 5765 5765 5765
5737 5739 5740 5741 5742 5743 5744 5745 5745 5745 5745 5747 5747 5748 5749 5749 5749 5750 5750 5750 5751 5753 5754 5755 5756 5756 5757 5757 5757 5757 5757 5758 5757 5757 5758 5758 5758 5759 5759 5759 5760 5760 5761 5761 5761 5761 5762 5762 5762 5762 5762 5762 5762 5762 5762 5762 5762 5762 5762 5761 5761 5761 5761
5735 5737 5738 5738 5740 5740 5741 5741 5742 5742 5742 5744 5744 5745 5746 5746 5747 5748 5747 5747 5748 5750 5751 5752 5753 5753 5754 5754 5754 5754 5755 5755 5755 5755 5755 5755 5755 5756 5756 5756 5756 5757 5757 5757 5757 5757 5757 5758 5758 5758 5758 5758 5758 5758 5758 5758 5758 5758 5758 5757 5757 5757 5757
5733 5734 5735 5736 5737 5738 5738 5738 5739 5739 5740 5741 5742 5743 5743 5744 5744 5745 5745 5745 5746 5748 5749 5749 5750 5750 5751 5751 5751 5752 5752 5752 5752 5752 5752 5752 5753 5753 5753 5753 5753 5753 5753 5753 5753 5753 5753 5753 5753 5753 5753 5753 5753 5753 5753 5754 5754 5753 5753 5753 5752 5752 5752
5730 5731 5732 5733 5733 5734 5735 5735 5736 5737 5737 5738 5739 5740 5741 5741 5742 5743 5743 5744 5744 5745 5746 5746 5747 5747 5748 5748 5748 5749 5749 5750 5750 5750 5750 5750 5750 5750 5750 5750 5749 5749 5749 5749 5749 5749 5749 5749 5749 5749 5749 5749 5749 5749 5749 5749 5749 5748 5748 5747 5747 5747 5747
5727 5728 5729 5730 5730 5731 5732 5732 5733 5734 5735 5735 5736 5737 5738 5739 5740 5740 5741 5741 5742 5742 5743 5743 5744 5744 5745 5745 5746 5746 5747 5747 5747 5747 5746 5747 5747 5747 5746 5746 5746 5746 5745 5745 5745 5745 5745 5745 5745 5745 5745 5744 5744 5744 5744 5744 5744 5743 5743 5742 5742 5742 5741
5724 5725 5726 5727 5727 5728 5729 5730 5730 5731 5732 5733 5734 5735 5736 5736 5737 5738 5738 5739 5739 5740 5740 5740 5741 5741 5742 5742 5743 5743 5743 5743 5743 5743 5743 5743 5743 5743 5743 5742 5742 5742 5741 5741 5741 5741 5740 5741 5740 5740 5740 5740 5739 5739 5739 5739 5739 5738 5737 5737 5736 5736 5736
5721 5722 5723 5724 5725 5725 5726 5727 5728 5729 5729 5730 5731 5732 5733 5734 5734 5735 5735 5736 5736 5736 5737 5737 5737 5738 5738 5739 5739 5739 5739 5739 5739 5739 5739 5739 5738 5738 5738 5738 5737 5737 5737 5737 5737 5736 5736 5736 5736 5735 5735 5735 5734 5734 5734 5733 5733 5732 5731 5731 5731 5730 5730
5718 5719 5720 5721 5722 5722 5723 5724 5725 5726 5726 5727 5728 5729 5730 5730 5731 5732 5732 5732 5733 5733 5733 5733 5733 5734 5734 5734 5735 5735 5735 5735 5735 5734 5734 5734 5733 5733 5733 5732 5732 5732 5732 5733 5732 5731 5731 5731 5730 5730 5730 5729 5729 5729 5728 5727 5727 5727 5725 5725 5724 5724 5723
5715 5716 5717 5718 5718 5719 5720 5720 5721 5722 5723 5723 5724 5725 5726 5726 5727 5728 5728 5728 5729 5729 5729 5730 5730 5730 5730 5730 5730 5731 5730 5730 5730 5729 5729 5729 5728 5728 5727 5727 5728 5728 5727 5727 5727 5726 5725 5725 5724 5724 5724 5723 5723 5723 5722 5721 5721 5720 5719 5717 5717 5716 5715
5712 5713 5713 5714 5715 5715 5716 5717 5717 5718 5718 5719 5720 5721 5721 5722 5723 5723 5723 5724 5724 5725 5725 5725 5726 5726 5726 5726 5726 5726 5726 5726 5725 5725 5724 5724 5723 5723 5722 5721 5722 5722 5721 5720 5720 5720 5719 5718 5717 5717 5716 5716 5715 5715 5715 5714 5714 5712 5710 5709 5708 5707 5707
5708 5709 5709 5710 5711 5711 5712 5712 5713 5713 5714 5715 5715 5716 5717 5718 5718 5719 5719 5719 5720 5720 5720 5721 5721 5721 5721 5720 5720 5720 5720 5720 5719 5719 5719 5718 5717 5717 5716 5716 5716 5716 5714 5713 5713 5713 5712 5711 5710 5710 5709 5708 5707 5706 5706 5705 5705 5704 5703 5702 5700 5698 5698
5703 5704 5705 5706 5706 5707 5707 5708 5708 5709 5710 5710 5711 5712 5712 5713 5713 5714 5714 5714 5715 5715 5715 5715 5715 5715 5715 5715 5715 5714 5714 5714 5713 5713 5712 5712 5711 5710 5710 5709 5709 5708 5706 5706 5705 5705 5704 5703 5702 5701 5700 5699 5698 5697 5696 5696 5695 5694 5694 5693 5691 5690 5689
5699 5699 5700 5701 5702 5702 5703 5703 5704 5704 5705 5706 5706 5707 5707 5708 5708 5708 5709 5709 5709 5709 5710 5710 5709 5709 5709 5709 5709 5708 5708 5708 5707 5706 5706 5705 5704 5703 5703 5702 5702 5700 5699 5698 5697 5696 5696 5694 5694 5693 5692 5690 5689 5688 5687 5687 5687 5685 5685 5684 5682 5681 5681